[[{"header":{"parameterUnit":"m.s-1","parameterCategory":1,"la1":30.2991,"la2":30.254,"lo1":-89.0895,"lo2":-89.0444,"dy":0.0017,"dx":0.0017,"nx":28,"ny":28,"refTime":"2025-05-15T09:00:00:Z","depth":0,"parameterNumber":2,"parameterNumberName":"U-component_of_WINDS"},"data":[0,0,0,0,0,0,0,0,0,0,0,0,0,0,0,0,0,0,0,0,0,0,0,0,0,0,0,0,0,0,0,0,0,0,0,0,0,0,0,0,0,0,0,0,0,0,0,0,0,0,0,0,0,0,0,0,0,0,1.1242,1.1243,0,1.1306,1.1307,1.1308,1.1308,1.1307,1.1306,1.1305,1.137,1.1373,1.1375,0,0,0,0,0,0,0,0,0,0,0,0,0,1.1117,1.1119,1.1242,1.1243,1.1244,1.1306,1.1307,1.1308,1.1308,1.1307,1.1306,1.1305,1.137,1.1373,1.1376,0,0,0,0,0,0,0,0,0,0,0,0,0,1.1175,1.112,1.1242,1.1251,1.1253,1.1306,1.1307,1.1308,1.1308,1.1307,1.1306,1.1305,1.1369,1.1372,1.1376,1.1424,0,0,1.1387,1.1389,0,0,0,0,0,0,0,0,1.1172,1.118,1.1249,1.1251,1.1252,1.1298,1.1287,1.1347,1.1309,1.1287,1.1305,1.1304,1.1347,1.1353,1.1367,1.1427,1.143,1.1388,1.139,1.1392,1.1393,0,0,0,0,0,0,0,1.1168,1.1177,1.1267,1.125,1.1252,1.1251,1.1258,1.1298,1.1323,1.1289,1.1289,1.1297,1.1348,1.1364,1.1369,1.1431,1.1388,1.1391,1.1393,1.1395,1.1532,1.1534,0,0,0,0,0,0,1.1162,1.1174,1.1265,1.1269,1.1208,1.1255,1.1262,1.1285,1.1323,1.1328,1.1298,1.1296,1.1358,1.1365,1.1371,1.1429,1.1392,1.1395,1.1397,1.1531,1.1533,1.1534,0,0,0,0,0,0,1.1159,1.117,1.1263,1.1222,1.1233,1.1258,1.1283,1.1286,1.1302,1.133,1.1334,1.131,1.1357,1.1366,1.1411,1.1432,1.1397,1.14,1.1529,1.1531,1.1533,1.1546,0,0,0,0,0,0,1.1156,1.1169,1.1188,1.1222,1.1236,1.1302,1.1284,1.1289,1.1309,1.1308,1.1342,1.1346,1.1357,1.1405,1.1415,1.1436,1.1403,1.1527,1.153,1.1533,1.1544,1.1548,1.1552,0,0,0,0,0,1.1151,1.1189,1.1189,1.12,1.126,1.1303,1.1311,1.1323,1.1311,1.133,1.1347,1.1345,1.1428,1.141,1.142,1.1443,1.1526,1.1529,1.1532,1.1542,1.1548,1.1552,0,0,0,0,0,0,1.1157,1.1194,1.1194,1.1245,1.1271,1.1303,1.1327,1.1328,1.1358,1.1356,1.1369,1.1376,1.1421,1.1437,1.1416,1.1491,1.1476,1.1481,1.1479,1.1485,1.1489,1.1484,1.1406,0,0,0,0,0,1.1164,1.1197,1.1227,1.1268,1.1282,1.1302,1.1321,1.1328,1.1356,1.1367,1.1387,1.1414,1.1445,1.1466,1.1497,1.1547,1.1553,1.1567,1.1572,1.1575,1.1579,1.1605,1.1612,1.1544,1.1544,1.1544,0,0,1.1179,1.1204,1.1223,1.127,1.1291,1.1324,1.1311,1.1347,1.1371,1.1372,1.1415,1.1431,1.1461,1.1509,1.153,1.1523,1.1599,1.1579,1.1581,1.1584,1.1609,1.1615,1.1621,1.1546,1.1546,1.1546,0,0,1.1223,1.1245,1.1282,1.1303,1.1335,1.1349,1.1357,1.1389,1.14,1.1444,1.1445,1.1474,1.1529,1.155,1.1568,1.1619,1.1618,1.1629,1.165,1.1675,1.168,1.1685,1.1702,1.1708,1.1633,1.1633,1.1633,0,1.1238,1.1287,1.13,1.1335,1.1355,1.1358,1.1395,1.1415,1.1455,1.1468,1.146,1.1528,1.1549,1.16,1.1613,1.1628,1.1637,1.1624,1.1679,1.1684,1.1688,1.1705,1.1711,1.1634,1.1634,1.1634,1.1634,0,1.1303,1.1337,1.1363,1.1402,1.1425,1.1461,1.1478,1.15,1.1504,1.1518,1.1562,1.1587,1.1623,1.1636,1.1641,1.1688,1.1682,1.1676,1.166,1.1695,1.1711,1.1718,1.1635,1.1635,1.1635,1.1634,0,0,1.1352,1.1397,1.1406,1.1424,1.1459,1.1486,1.1521,1.1556,1.1574,1.1602,1.1631,1.1677,1.1671,1.1692,1.1699,1.1722,1.1759,1.1713,1.1714,1.172,1.1811,1.1814,1.1821,1.1759,1.176,1.1761,1.1808,0,1.1399,1.1462,1.1474,1.1529,1.156,1.1563,1.1594,1.1618,1.1632,1.166,1.1676,1.1707,1.1699,1.1711,1.1733,1.175,1.1777,1.1747,1.1785,1.1786,1.1777,1.183,1.1834,1.1877,1.1814,1.1815,1.1816,0,1.1461,1.1491,1.1549,1.1579,1.1593,1.162,1.1652,1.168,1.1707,1.1716,1.1738,1.1743,1.1779,1.1762,1.1811,1.179,1.1806,1.1817,1.1819,1.1822,1.1803,1.1833,1.1891,1.1897,1.1826,1.1825,1.1825,0,1.149,1.1544,1.1585,1.16,1.1637,1.1656,1.1672,1.1699,1.1719,1.1747,1.176,1.1792,1.1809,1.1834,1.1847,1.1833,1.1894,1.1879,1.1901,1.1901,1.1913,1.1912,1.1973,1.1926,1.1926,1.1926,1.1926,0,1.154,1.1575,1.1598,1.1623,1.1662,1.1676,1.1714,1.173,1.1753,1.1781,1.1786,1.1811,1.1828,1.1856,1.1866,1.1904,1.1913,1.192,1.1922,1.1919,1.1918,1.1929,1.1926,1.1927,1.1927,1.1927,1.1926,0,1.1578,1.1595,1.164,1.1671,1.168,1.1707,1.1734,1.1758,1.1772,1.1807,1.1816,1.1838,1.1871,1.1886,1.1927,1.1934,1.1977,1.1978,1.1968,1.1969,1.199,1.1987,1.2059,1.2069,1.2016,1.2017,1.2017,0,1.1608,1.1635,1.1669,1.1688,1.1705,1.1736,1.1756,1.1771,1.1791,1.1825,1.1845,1.1878,1.1905,1.1958,1.1977,1.2008,1.2009,1.2032,1.2013,1.2009,1.2008,1.2005,1.2008,1.2035,1.2035,1.2036,1.2036,0,1.166,1.1667,1.1696,1.1729,1.1753,1.1779,1.1804,1.182,1.1838,1.1861,1.1895,1.1916,1.1958,1.199,1.2023,1.2039,1.204,1.2042,1.2049,1.2045,1.2037,1.2041,1.1976,1.204,1.204,1.2039,1.2039,1.2039,1.1694,1.1717,1.1745,1.1778,1.1798,1.1822,1.1846,1.1863,1.1892,1.1927,1.1934,1.1969,1.1996,1.2039,1.2056,1.2084,1.2079,1.2089,1.2091,1.2093,1.2093,1.2034,1.209,1.209,1.209,1.209,1.209,0,1.1744,1.1762,1.1792,1.1828,1.1853,1.1853,1.1881,1.1902,1.1934,1.1958,1.1985,1.2023,1.2055,1.2077,1.2108,1.2126,1.2128,1.2134,1.2132,1.2136,1.2097,1.2088,1.2132,1.2132,1.2132,1.2132,1.2132,1.2132,1.1774,1.1813,1.1824,1.1874,1.1891,1.1927,1.1942,1.1964,1.1984,1.2026,1.2053,1.2067,1.209,1.2123,1.2152,1.2157,1.2168,1.2175,1.218,1.2143,1.2139,1.2134,1.2125,1.2177,1.2177,1.2216,1.2216,1.2217]},{"header":{"parameterUnit":"m.s-1","parameterCategory":1,"la1":30.2991,"la2":30.254,"lo1":-89.0895,"lo2":-89.0444,"dy":0.0017,"dx":0.0017,"nx":28,"ny":28,"refTime":"2025-05-15T09:00:00:Z","depth":0,"parameterNumber":3,"parameterNumberName":"V-component_of_WINDS"},"data":[0,0,0,0,0,0,0,0,0,0,0,0,0,0,0,0,0,0,0,0,0,0,0,0,0,0,0,0,0,0,0,0,0,0,0,0,0,0,0,0,0,0,0,0,0,0,0,0,0,0,0,0,0,0,0,0,0,0,6.3232,6.3233,0,6.3305,6.3305,6.3306,6.325,6.3247,6.3245,6.3243,6.3311,6.3315,6.3319,0,0,0,0,0,0,0,0,0,0,0,0,0,6.3037,6.3041,6.3232,6.3233,6.3234,6.3305,6.3305,6.3306,6.325,6.3247,6.3244,6.3241,6.3309,6.3314,6.3319,0,0,0,0,0,0,0,0,0,0,0,0,0,6.3117,6.3043,6.3232,6.3214,6.3213,6.3304,6.3306,6.3307,6.3251,6.3247,6.3243,6.324,6.3308,6.3314,6.332,6.343,0,0,6.3338,6.3341,0,0,0,0,0,0,0,0,6.3113,6.3124,6.3216,6.3216,6.3215,6.3265,6.3262,6.3348,6.3252,6.3236,6.3242,6.3238,6.3298,6.3305,6.3326,6.3433,6.3436,6.3339,6.3343,6.3345,6.3347,0,0,0,0,0,0,0,6.3107,6.3121,6.326,6.3217,6.3217,6.3201,6.3208,6.3278,6.3286,6.3237,6.3233,6.3243,6.3297,6.332,6.3327,6.3437,6.3339,6.3344,6.3348,6.335,6.3638,6.3641,0,0,0,0,0,0,6.3104,6.3117,6.3258,6.3263,6.3154,6.3207,6.3215,6.3252,6.3285,6.3287,6.3246,6.324,6.3312,6.332,6.3329,6.346,6.3345,6.3351,6.3355,6.3634,6.3639,6.3643,0,0,0,0,0,0,6.31,6.3117,6.3255,6.3189,6.3205,6.3214,6.3256,6.3255,6.3279,6.3292,6.3293,6.3269,6.3309,6.3321,6.3406,6.3462,6.3354,6.3359,6.3629,6.3635,6.3641,6.3724,0,0,0,0,0,0,6.3095,6.3116,6.316,6.319,6.3209,6.3332,6.326,6.3259,6.329,6.3283,6.3314,6.3315,6.3307,6.3397,6.3412,6.3468,6.3364,6.3624,6.3632,6.3639,6.3716,6.3732,6.3745,0,0,0,0,0,6.3088,6.3179,6.3162,6.318,6.3264,6.3336,6.3346,6.3337,6.3295,6.3338,6.3346,6.3314,6.3454,6.3406,6.3422,6.3482,6.362,6.363,6.3638,6.3709,6.3729,6.3745,0,0,0,0,0,0,6.3152,6.3182,6.3164,6.3268,6.33,6.3326,6.338,6.3357,6.34,6.3392,6.3376,6.3384,6.3473,6.3486,6.3432,6.359,6.353,6.3543,6.3579,6.3597,6.3611,6.3606,6.3369,0,0,0,0,0,6.3179,6.3238,6.3259,6.3349,6.3366,6.3371,6.3401,6.3392,6.3423,6.3436,6.345,6.3481,6.3531,6.3565,6.3612,6.3718,6.3723,6.3766,6.3781,6.3793,6.3804,6.386,6.388,6.3672,6.3672,6.3672,0,0,6.3234,6.3257,6.3295,6.3362,6.3386,6.3445,6.3382,6.3447,6.349,6.3445,6.3527,6.3539,6.3571,6.3667,6.371,6.368,6.3862,6.3804,6.3814,6.3818,6.3871,6.3891,6.3909,6.3678,6.3677,6.3676,0,0,6.3364,6.3388,6.3465,6.3491,6.3528,6.3531,6.3549,6.3579,6.3586,6.3669,6.3636,6.3686,6.3773,6.3798,6.3822,6.3962,6.3934,6.3978,6.4054,6.4109,6.4126,6.414,6.419,6.4208,6.3988,6.3989,6.3989,0,6.3426,6.3516,6.3507,6.3575,6.3605,6.357,6.3646,6.3671,6.3721,6.3742,6.3708,6.3818,6.3837,6.3938,6.3973,6.3993,6.4013,6.3974,6.4124,6.4139,6.4152,6.4199,6.4218,6.3994,6.3993,6.3993,6.3992,0,6.3591,6.3654,6.3711,6.3763,6.38,6.3871,6.3871,6.3909,6.3896,6.3902,6.3985,6.4007,6.4059,6.4082,6.4069,6.4181,6.4162,6.4127,6.4066,6.4177,6.4221,6.4239,6.4001,6.3999,6.3998,6.3996,0,0,6.3763,6.381,6.3831,6.3855,6.3894,6.3941,6.401,6.4063,6.4095,6.4131,6.4188,6.4263,6.4231,6.4259,6.4248,6.4297,6.4406,6.4255,6.4256,6.4282,6.4531,6.4557,6.4578,6.4388,6.4391,6.4394,6.4528,0,6.3895,6.4019,6.4013,6.4128,6.4185,6.4153,6.4213,6.4243,6.425,6.4297,6.4304,6.4358,6.4312,6.4328,6.4375,6.4383,6.4455,6.4373,6.4439,6.4442,6.4432,6.4601,6.4629,6.4754,6.4545,6.4548,6.455,0,6.4065,6.4109,6.4231,6.4263,6.4286,6.4341,6.4389,6.4435,6.4467,6.4469,6.45,6.4482,6.455,6.4489,6.4582,6.4527,6.4553,6.4561,6.4566,6.4571,6.4502,6.4611,6.4794,6.4812,6.4577,6.4575,6.4573,0,6.4178,6.4268,6.4353,6.4373,6.4412,6.4451,6.4469,6.4498,6.4529,6.457,6.459,6.4638,6.4664,6.47,6.4694,6.465,6.4789,6.4727,6.4791,6.4792,6.4822,6.482,6.5012,6.484,6.4839,6.4839,6.4839,0,6.4326,6.4401,6.4404,6.4456,6.454,6.4531,6.4613,6.4626,6.4652,6.4704,6.4678,6.4727,6.4717,6.4766,6.4761,6.4839,6.4851,6.4853,6.4851,6.4856,6.4855,6.4872,6.4863,6.4844,6.4843,6.4842,6.4841,0,6.4466,6.4471,6.4561,6.4591,6.46,6.466,6.4685,6.4733,6.4738,6.4805,6.482,6.4827,6.4883,6.4881,6.4944,6.4941,6.5037,6.5025,6.5027,6.5024,6.5089,6.5082,6.5298,6.5325,6.5136,6.5137,6.5139,0,6.456,6.4618,6.4655,6.4689,6.471,6.4765,6.4799,6.4792,6.4827,6.4869,6.4912,6.4966,6.5009,6.5099,6.5109,6.5157,6.5145,6.5217,6.5152,6.5155,6.5146,6.5143,6.5148,6.523,6.5232,6.5234,6.5235,0,6.4726,6.4726,6.4776,6.4827,6.4868,6.4908,6.4944,6.4973,6.497,6.501,6.5069,6.5102,6.5167,6.5221,6.5267,6.5282,6.5258,6.5256,6.5273,6.5278,6.5277,6.5278,6.5062,6.5251,6.5249,6.5248,6.5247,6.5246,6.4845,6.4895,6.493,6.4986,6.5013,6.5048,6.5095,6.5107,6.5157,6.5211,6.5203,6.5268,6.5298,6.5358,6.5378,6.5427,6.5401,6.5426,6.5433,6.5439,6.5446,6.527,6.5435,6.5435,6.5434,6.5434,6.5434,0,6.501,6.5031,6.5083,6.5136,6.518,6.5156,6.5195,6.5233,6.5291,6.5322,6.5366,6.5432,6.5484,6.5499,6.5548,6.5585,6.5575,6.5598,6.5595,6.5599,6.5466,6.5447,6.5606,6.5606,6.5606,6.5606,6.5605,6.5605,6.5101,6.5184,6.5189,6.5285,6.5304,6.537,6.5394,6.5425,6.545,6.5527,6.5571,6.5581,6.5605,6.5656,6.5702,6.5705,6.5724,6.5752,6.575,6.5626,6.5608,6.5592,6.5573,6.5756,6.5756,6.5878,6.588,6.5881]}]]